| time (UTC) | temp C | wind direction | speed KPH | gust KPH | rain 1hr cm | rain 24hr cm | rain mn cm | humidity % | barometer mb |
| 20260508055003 | 7 | 102 | 4.8 | 12.9 | 0.00 | 0.46 | 0.00 | 84 | 1009.6 |
| 20260508054003 | 7 | 101 | 6.4 | 12.9 | 0.00 | 0.46 | 0.00 | 84 | 1009.7 |
| 20260508053003 | 7 | 101 | 4.8 | 9.7 | 0.00 | 0.46 | 0.00 | 84 | 1009.5 |
| 20260508052003 | 7 | 108 | 4.8 | 6.4 | 0.00 | 0.46 | 0.00 | 85 | 1009.6 |
| 20260508051003 | 7 | 106 | 6.4 | 11.3 | 0.00 | 0.46 | 0.00 | 85 | 1009.5 |
| 20260508050003 | 7 | 115 | 6.4 | 11.3 | 0.00 | 0.46 | 0.00 | 85 | 1009.6 |
| 20260508045003 | 7 | 113 | 4.8 | 6.4 | 0.00 | 0.46 | 0.00 | 85 | 1009.4 |
| 20260508044003 | 7 | 101 | 4.8 | 9.7 | 0.00 | 0.46 | 0.00 | 85 | 1009.2 |
| 20260508043003 | 7 | 105 | 4.8 | 9.7 | 0.00 | 0.46 | 0.00 | 85 | 1009.2 |
| 20260508042003 | 7 | 104 | 6.4 | 11.3 | 0.00 | 0.46 | 0.00 | 84 | 1009.1 |
| 20260508041003 | 7 | 100 | 6.4 | 11.3 | 0.00 | 0.46 | 0.00 | 83 | 1009.1 |
| 20260508040003 | 7 | 113 | 4.8 | 11.3 | 0.00 | 0.46 | 0.00 | 83 | 1009.2 |
| 20260508035003 | 7 | 101 | 8.0 | 12.9 | 0.00 | 0.46 | 0.00 | 83 | 1008.9 |
| 20260508034003 | 7 | 106 | 6.4 | 12.9 | 0.00 | 0.46 | 0.00 | 84 | 1008.9 |
| 20260508033003 | 7 | 104 | 4.8 | 11.3 | 0.00 | 0.46 | 0.00 | 84 | 1009.1 |
| 20260508032003 | 7 | 106 | 6.4 | 11.3 | 0.00 | 0.46 | 0.00 | 84 | 1009.0 |
| 20260508031003 | 7 | 100 | 4.8 | 6.4 | 0.00 | 0.46 | 0.00 | 85 | 1008.8 |
| 20260508030003 | 7 | 103 | 6.4 | 11.3 | 0.00 | 0.46 | 0.00 | 86 | 1008.9 |
| 20260508025003 | 7 | 95 | 8.0 | 12.9 | 0.00 | 0.46 | 0.00 | 86 | 1008.8 |
| 20260508024003 | 7 | 93 | 8.0 | 14.5 | 0.00 | 0.46 | 0.00 | 86 | 1009.0 |
| 20260508023003 | 7 | 108 | 6.4 | 14.5 | 0.00 | 0.46 | 0.00 | 86 | 1009.0 |
| 20260508022003 | 7 | 108 | 8.0 | 14.5 | 0.00 | 0.46 | 0.00 | 86 | 1009.0 |
| 20260508021003 | 7 | 108 | 8.0 | 14.5 | 0.00 | 0.46 | 0.00 | 86 | 1009.1 |
| 20260508020003 | 7 | 109 | 8.0 | 14.5 | 0.00 | 0.46 | 0.00 | 86 | 1009.5 |
| 20260508015003 | 7 | 108 | 9.7 | 16.1 | 0.00 | 0.46 | 0.00 | 86 | 1009.3 |
| 20260508014003 | 7 | 106 | 9.7 | 14.5 | 0.00 | 0.46 | 0.00 | 86 | 1009.4 |
| 20260508013003 | 7 | 102 | 9.7 | 16.1 | 0.00 | 0.46 | 0.00 | 86 | 1009.3 |
| 20260508012003 | 7 | 105 | 9.7 | 14.5 | 0.00 | 0.46 | 0.00 | 86 | 1009.7 |
| 20260508011003 | 7 | 94 | 9.7 | 14.5 | 0.00 | 0.46 | 0.00 | 85 | 1009.8 |
| 20260508010003 | 7 | 101 | 11.3 | 14.5 | 0.00 | 0.46 | 0.00 | 85 | 1010.1 |
| 20260508005003 | 7 | 103 | 11.3 | 16.1 | 0.00 | 0.46 | 0.00 | 85 | 1010.2 |
| 20260508004003 | 7 | 107 | 11.3 | 16.1 | 0.00 | 0.46 | 0.00 | 85 | 1010.2 |
| 20260508003003 | 7 | 107 | 8.0 | 12.9 | 0.00 | 0.46 | 0.00 | 85 | 1010.4 |
| 20260508002003 | 8 | 99 | 8.0 | 12.9 | 0.00 | 0.46 | 0.00 | 84 | 1010.6 |
| 20260508001003 | 8 | 94 | 8.0 | 14.5 | 0.00 | 0.46 | 0.00 | 84 | 1010.5 |
| 20260508000003 | 8 | 105 | 9.7 | 16.1 | 0.00 | 0.46 | 0.00 | 84 | 1010.6 |
| 20260507235003 | 8 | 108 | 9.7 | 16.1 | 0.00 | 0.46 | 0.00 | 84 | 1010.7 |
| 20260507234003 | 8 | 107 | 9.7 | 14.5 | 0.00 | 0.46 | 0.00 | 85 | 1010.7 |
| 20260507233003 | 7 | 100 | 9.7 | 16.1 | 0.00 | 0.46 | 0.00 | 85 | 1010.9 |
| 20260507232003 | 7 | 100 | 9.7 | 14.5 | 0.00 | 0.46 | 0.00 | 85 | 1010.8 |
| 20260507231003 | 8 | 101 | 11.3 | 16.1 | 0.00 | 0.46 | 0.00 | 85 | 1010.9 |
| 20260507230003 | 8 | 110 | 9.7 | 16.1 | 0.00 | 0.46 | 0.00 | 84 | 1010.9 |
| 20260507225003 | 8 | 113 | 9.7 | 14.5 | 0.00 | 0.46 | 0.00 | 86 | 1011.3 |
| 20260507224003 | 8 | 101 | 11.3 | 17.7 | 0.00 | 0.46 | 0.00 | 86 | 1011.3 |
| 20260507223003 | 8 | 116 | 9.7 | 14.5 | 0.00 | 0.46 | 0.00 | 87 | 1011.0 |
| 20260507222003 | 8 | 120 | 11.3 | 16.1 | 0.00 | 0.46 | 0.00 | 86 | 1011.2 |
| 20260507221003 | 8 | 122 | 11.3 | 16.1 | 0.00 | 0.46 | 0.00 | 85 | 1011.0 |
| 20260507220003 | 8 | 134 | 11.3 | 17.7 | 0.00 | 0.46 | 0.00 | 84 | 1011.2 |
| 20260507215003 | 9 | 142 | 11.3 | 20.9 | 0.00 | 0.46 | 0.46 | 83 | 1011.0 |
| 20260507214003 | 9 | 125 | 12.9 | 20.9 | 0.00 | 0.46 | 0.46 | 83 | 1010.9 |
| 20260507213003 | 9 | 119 | 11.3 | 20.9 | 0.00 | 0.46 | 0.46 | 84 | 1010.7 |
| 20260507212003 | 9 | 126 | 12.9 | 20.9 | 0.00 | 0.46 | 0.46 | 84 | 1010.7 |
| 20260507211003 | 9 | 132 | 11.3 | 22.5 | 0.00 | 0.46 | 0.46 | 83 | 1010.6 |
| 20260507210003 | 10 | 125 | 11.3 | 20.9 | 0.00 | 0.46 | 0.46 | 83 | 1010.7 |
| 20260507205003 | 9 | 129 | 9.7 | 17.7 | 0.00 | 0.46 | 0.46 | 83 | 1010.3 |
| 20260507204003 | 9 | 124 | 12.9 | 22.5 | 0.00 | 0.46 | 0.46 | 83 | 1010.2 |
| 20260507203003 | 10 | 132 | 12.9 | 22.5 | 0.00 | 0.46 | 0.46 | 83 | 1010.1 |
| 20260507202003 | 10 | 126 | 12.9 | 24.1 | 0.00 | 0.46 | 0.46 | 84 | 1010.1 |
| 20260507201003 | 10 | 121 | 12.9 | 25.7 | 0.00 | 0.46 | 0.46 | 84 | 1010.0 |
| 20260507200003 | 10 | 131 | 14.5 | 25.7 | 0.00 | 0.46 | 0.46 | 84 | 1009.6 |
| 20260507195003 | 10 | 124 | 16.1 | 25.7 | 0.00 | 0.46 | 0.46 | 83 | 1009.6 |
| 20260507194003 | 10 | 120 | 16.1 | 25.7 | 0.00 | 0.46 | 0.46 | 81 | 1009.4 |
| 20260507193003 | 10 | 117 | 14.5 | 22.5 | 0.00 | 0.46 | 0.46 | 77 | 1009.6 |
| 20260507192003 | 10 | 120 | 8.0 | 17.7 | 0.00 | 0.46 | 0.46 | 78 | 1009.6 |
| 20260507191003 | 10 | 107 | 6.4 | 14.5 | 0.00 | 0.46 | 0.46 | 77 | 1009.1 |
| 20260507190004 | 11 | 114 | 8.0 | 14.5 | 0.00 | 0.46 | 0.46 | 76 | 1009.2 |
| 20260507185003 | 11 | 110 | 6.4 | 11.3 | 0.00 | 0.46 | 0.46 | 75 | 1009.1 |
| 20260507184003 | 12 | 105 | 4.8 | 9.7 | 0.00 | 0.46 | 0.46 | 74 | 1008.8 |
| 20260507183003 | 12 | 98 | 4.8 | 9.7 | 0.00 | 0.46 | 0.46 | 73 | 1008.8 |
| 20260507182003 | 12 | 90 | 4.8 | 9.7 | 0.00 | 0.46 | 0.46 | 70 | 1008.8 |
| 20260507181003 | 12 | 93 | 6.4 | 11.3 | 0.00 | 0.46 | 0.46 | 71 | 1008.6 |
| 20260507180003 | 12 | 93 | 8.0 | 14.5 | 0.05 | 0.46 | 0.46 | 68 | 1009.0 |
| 20260507175003 | 12 | 85 | 8.0 | 14.5 | 0.15 | 0.46 | 0.46 | 68 | 1008.8 |
| 20260507174003 | 12 | 62 | 6.4 | 12.9 | 0.23 | 0.46 | 0.46 | 64 | 1008.5 |
| 20260507173003 | 11 | 59 | 6.4 | 16.1 | 0.28 | 0.46 | 0.46 | 64 | 1008.5 |
| 20260507172003 | 11 | 46 | 12.9 | 22.5 | 0.28 | 0.46 | 0.46 | 70 | 1008.6 |
| 20260507171003 | 11 | 65 | 11.3 | 33.8 | 0.28 | 0.46 | 0.46 | 63 | 1008.4 |
| 20260507170003 | 10 | 173 | 3.2 | 9.7 | 0.23 | 0.41 | 0.41 | 65 | 1009.4 |
| 20260507165003 | 10 | 189 | 3.2 | 14.5 | 0.13 | 0.30 | 0.30 | 73 | 1009.5 |
| 20260507164003 | 10 | 250 | 17.7 | 30.6 | 0.05 | 0.23 | 0.23 | 76 | 1010.1 |
| 20260507163003 | 10 | 259 | 8.0 | 16.1 | 0.00 | 0.18 | 0.18 | 74 | 1009.6 |
| 20260507162003 | 10 | 267 | 12.9 | 22.5 | 0.00 | 0.18 | 0.18 | 72 | 1009.6 |
| 20260507161003 | 11 | 277 | 16.1 | 27.4 | 0.00 | 0.18 | 0.18 | 69 | 1009.6 |
| 20260507160003 | 12 | 288 | 11.3 | 24.1 | 0.00 | 0.18 | 0.18 | 63 | 1009.7 |
| 20260507155003 | 12 | 307 | 11.3 | 20.9 | 0.00 | 0.18 | 0.18 | 62 | 1009.6 |
| 20260507154003 | 12 | 318 | 11.3 | 20.9 | 0.00 | 0.18 | 0.18 | 60 | 1009.2 |
| 20260507153003 | 12 | 354 | 8.0 | 12.9 | 0.00 | 0.18 | 0.18 | 64 | 1009.1 |
| 20260507152003 | 12 | 340 | 11.3 | 16.1 | 0.00 | 0.18 | 0.18 | 63 | 1009.3 |
| 20260507151003 | 12 | 343 | 9.7 | 16.1 | 0.00 | 0.18 | 0.18 | 65 | 1009.3 |
| 20260507150003 | 12 | 5 | 8.0 | 17.7 | 0.00 | 0.18 | 0.18 | 64 | 1009.4 |
| 20260507145003 | 12 | 348 | 9.7 | 20.9 | 0.00 | 0.18 | 0.18 | 65 | 1009.2 |
| 20260507144003 | 12 | 6 | 12.9 | 22.5 | 0.00 | 0.18 | 0.18 | 63 | 1009.2 |
| 20260507143003 | 12 | 348 | 11.3 | 25.7 | 0.00 | 0.18 | 0.18 | 69 | 1009.1 |
| 20260507142003 | 13 | 3 | 8.0 | 16.1 | 0.00 | 0.18 | 0.18 | 69 | 1009.2 |
| 20260507141003 | 13 | 68 | 4.8 | 12.9 | 0.00 | 0.18 | 0.18 | 68 | 1009.4 |
| 20260507140003 | 13 | 89 | 6.4 | 12.9 | 0.00 | 0.18 | 0.18 | 73 | 1009.5 |
| 20260507135003 | 12 | 83 | 8.0 | 12.9 | 0.03 | 0.18 | 0.18 | 72 | 1009.5 |
| 20260507134003 | 11 | 94 | 4.8 | 6.4 | 0.03 | 0.18 | 0.18 | 79 | 1009.7 |
| 20260507133003 | 11 | 102 | 6.4 | 11.3 | 0.10 | 0.18 | 0.18 | 75 | 1009.7 |
| 20260507132003 | 11 | 127 | 8.0 | 16.1 | 0.18 | 0.18 | 0.18 | 75 | 1009.7 |
| 20260507131003 | 11 | 134 | 9.7 | 25.7 | 0.18 | 0.18 | 0.18 | 79 | 1009.6 |
| 20260507130003 | 11 | 128 | 19.3 | 30.6 | 0.18 | 0.18 | 0.18 | 78 | 1009.2 |
| 20260507125003 | 10 | 129 | 14.5 | 24.1 | 0.15 | 0.15 | 0.15 | 84 | 1009.3 |
| 20260507124003 | 10 | 134 | 17.7 | 30.6 | 0.15 | 0.15 | 0.15 | 82 | 1009.6 |
| 20260507123003 | 10 | 162 | 24.1 | 46.7 | 0.08 | 0.08 | 0.08 | 83 | 1009.6 |
| 20260507122004 | 12 | 139 | 20.9 | 37.0 | 0.00 | 0.00 | 0.00 | 67 | 1009.4 |
| 20260507121003 | 12 | 147 | 20.9 | 30.6 | 0.00 | 0.00 | 0.00 | 71 | 1009.0 |
| 20260507120004 | 13 | 160 | 22.5 | 37.0 | 0.00 | 0.00 | 0.00 | 70 | 1009.0 |
| 20260507115003 | 14 | 140 | 20.9 | 35.4 | 0.00 | 0.00 | 0.00 | 63 | 1008.5 |
| 20260507114003 | 15 | 152 | 16.1 | 27.4 | 0.00 | 0.00 | 0.00 | 61 | 1008.6 |
| 20260507113003 | 15 | 138 | 17.7 | 30.6 | 0.00 | 0.00 | 0.00 | 61 | 1008.9 |
| 20260507112003 | 15 | 144 | 14.5 | 25.7 | 0.00 | 0.00 | 0.00 | 58 | 1008.9 |
| 20260507111003 | 15 | 129 | 17.7 | 29.0 | 0.00 | 0.00 | 0.00 | 58 | 1009.2 |
| 20260507110003 | 16 | 137 | 9.7 | 20.9 | 0.00 | 0.00 | 0.00 | 58 | 1009.2 |
| 20260507105003 | 15 | 150 | 12.9 | 25.7 | 0.00 | 0.00 | 0.00 | 60 | 1009.4 |
| 20260507104003 | 16 | 157 | 12.9 | 24.1 | 0.00 | 0.00 | 0.00 | 57 | 1009.3 |
| 20260507103003 | 15 | 143 | 14.5 | 27.4 | 0.00 | 0.00 | 0.00 | 63 | 1009.5 |
| 20260507102003 | 14 | 132 | 16.1 | 27.4 | 0.00 | 0.00 | 0.00 | 63 | 1009.4 |
| 20260507101003 | 14 | 135 | 14.5 | 27.4 | 0.00 | 0.00 | 0.00 | 64 | 1009.6 |
| 20260507100003 | 14 | 154 | 16.1 | 27.4 | 0.00 | 0.00 | 0.00 | 62 | 1009.8 |
| 20260507095003 | 15 | 132 | 16.1 | 24.1 | 0.00 | 0.00 | 0.00 | 62 | 1010.1 |
| 20260507094003 | 15 | 126 | 14.5 | 25.7 | 0.00 | 0.00 | 0.00 | 62 | 1010.0 |
| 20260507093003 | 14 | 113 | 16.1 | 30.6 | 0.00 | 0.00 | 0.00 | 66 | 1009.8 |
| 20260507092003 | 13 | 140 | 12.9 | 25.7 | 0.00 | 0.00 | 0.00 | 65 | 1009.8 |
| 20260507091003 | 13 | 140 | 12.9 | 25.7 | 0.00 | 0.00 | 0.00 | 71 | 1009.7 |
| 20260507090004 | 13 | 118 | 11.3 | 25.7 | 0.00 | 0.00 | 0.00 | 67 | 1009.8 |
| 20260507085003 | 13 | 131 | 8.0 | 17.7 | 0.00 | 0.00 | 0.00 | 67 | 1010.0 |
| 20260507084003 | 13 | 147 | 9.7 | 20.9 | 0.00 | 0.00 | 0.00 | 67 | 1009.6 |
| 20260507083003 | 12 | 139 | 11.3 | 17.7 | 0.00 | 0.00 | 0.00 | 68 | 1010.0 |
| 20260507082003 | 12 | 144 | 9.7 | 22.5 | 0.00 | 0.00 | 0.00 | 68 | 1009.7 |
| 20260507081003 | 12 | 153 | 9.7 | 17.7 | 0.00 | 0.00 | 0.00 | 68 | 1009.8 |
| 20260507080003 | 12 | 122 | 9.7 | 20.9 | 0.00 | 0.00 | 0.00 | 68 | 1009.6 |
| 20260507075003 | 12 | 137 | 4.8 | 12.9 | 0.00 | 0.00 | 0.00 | 69 | 1009.7 |
| 20260507074003 | 11 | 112 | 4.8 | 11.3 | 0.00 | 0.00 | 0.00 | 72 | 1009.7 |
| 20260507073003 | 12 | 114 | 3.2 | 9.7 | 0.00 | 0.00 | 0.00 | 70 | 1009.8 |
| 20260507072003 | 11 | 86 | 1.6 | 9.7 | 0.00 | 0.00 | 0.00 | 69 | 1009.5 |
| 20260507071003 | 11 | 74 | 1.6 | 9.7 | 0.00 | 0.00 | 0.00 | 73 | 1009.8 |
| 20260507070005 | 10 | 46 | 3.2 | 9.7 | 0.00 | 0.00 | 0.00 | 75 | 1009.5 |
| 20260507065003 | 10 | 53 | 3.2 | 9.7 | 0.00 | 0.00 | 0.00 | 75 | 1009.4 |
| 20260507064003 | 10 | 48 | 3.2 | 9.7 | 0.00 | 0.00 | 0.00 | 77 | 1009.2 |
| 20260507063003 | 10 | 32 | 4.8 | 9.7 | 0.00 | 0.00 | 0.00 | 78 | 1009.4 |
| 20260507062003 | 10 | 31 | 3.2 | 6.4 | 0.00 | 0.00 | 0.00 | 77 | 1009.2 |
| 20260507061003 | 9 | 41 | 3.2 | 9.7 | 0.00 | 0.00 | 0.00 | 78 | 1009.2 |
| 20260507060003 | 9 | 37 | 4.8 | 9.7 | 0.00 | 0.00 | 0.00 | 79 | 1009.0 |